Location: Newark
(44.2003°N, 3.2583°E)
Time: 07:23:24
(UTC+00:00)

STARLINK-1724 - Pass Details

Date: 25 September 2020
Orbit: 378 x 381 km, 53.0° (Epoch: 29 October)

Event Time Altitude Azimuth Distance (km) Brightness Sun altitude
Exits shadow 05:02:02 - 309° (NW) 1,974 6.0 -7.3°
Reaches altitude 10° 05:03:28 10° 315° (NW) 1,407 5.3 -7.0°
Maximum altitude 05:06:25 37° 25° (NNE) 612 4.2 -6.5°
Drops below altitude 10° 05:09:22 10° 96° (E) 1,401 7.4 -6.0°
Sets 05:11:30 0° 105° (ESE) 2,251 8.4 -5.6°
